Flag for U.S.A. Weather past 2 weeks in Fort Collins, Colorado, U.S.A.

Now
48 °F

Passing clouds.


Feels Like: 45 °F
Forecast: 48 / 55 °F
Wind: 8 mph from Southeast

Location: Fort Collins-Loveland Municipal Airport

Current Time: May 4, 2015 at 11:24:45 PM

Latest Report: May 4, 2015 at 10:55 PM


Visibility: 10 mi

Pressure: 30.11 "Hg

Humidity: 87%

Dew point: 45 °F

Location of Fort CollinsLocation

Historic Weather in Fort Collins — Graph

°F

Fort Collins temperature yesterday

Maximum temperature yesterday: 75 °F (at 11:55 AM)
Minimum temperature yesterday: 46 °F (at 4:55 AM)
Average temperature yesterday: 58 °F

Past Weeks' High & Low Weather Summary

 TemperatureHumidityPressure
High81 °F (Apr 30, 4:35 PM)100% (May 2, 4:35 AM)30.38 "Hg (May 2, 4:35 AM)
Low32 °F (Apr 20, 5:35 AM)20% (Apr 30, 3:55 PM)29.65 "Hg (Apr 24, 2:35 PM)
Average52 °F63%29.99 "Hg
* Reported Apr 19 10:15 PM — May 4 10:35 PM, Fort Collins, Weather by CustomWeather, © 2015

Note: Actual official high and low records may vary slightly from our data, if they occured in-between our weather recording intervals... More about our weather records

Advertising

Fort Collins weather history for previous 24 hours

 ConditionsComfort  
Time TempWeatherWind HumidityBarometerVisibility
10:35 PM
Mon, May 4
50 °FPassing clouds.7 mph88%30.11 "Hg10 mi
10:15 PM50 °FPassing clouds.10 mph88%30.11 "Hg10 mi
9:15 PM52 °FPassing clouds.15 mph82%30.10 "Hg10 mi
8:55 PM52 °FPartly sunny.9 mph88%30.10 "Hg8 mi
8:35 PM54 °FScattered clouds.3 mph82%30.10 "Hg7 mi
8:15 PM54 °FPartly sunny.No wind82%30.09 "Hg7 mi
7:55 PM54 °FMostly cloudy.No wind82%30.09 "Hg6 mi
7:35 PM54 °FOvercast.No wind82%30.08 "Hg9 mi
7:15 PM55 °FPartly sunny.No wind77%30.07 "Hg10 mi
6:55 PM55 °FPartly sunny.No wind77%30.07 "Hg10 mi
6:35 PM55 °FOvercast.No wind72%30.08 "Hg10 mi
6:15 PM57 °FPartly sunny.No wind67%30.08 "Hg10 mi
5:55 PM57 °FPartly sunny.No wind67%30.08 "Hg10 mi
5:35 PM57 °FBroken clouds.5 mph67%30.08 "Hg10 mi
5:15 PM57 °FPartly sunny.6 mph67%30.08 "Hg10 mi
4:55 PM57 °FMostly cloudy.7 mph67%30.08 "Hg10 mi
4:35 PM57 °FCloudy.5 mph67%30.08 "Hg10 mi
4:15 PM57 °FMostly cloudy.6 mph67%30.08 "Hg10 mi
3:55 PM57 °FBroken clouds.7 mph67%30.09 "Hg10 mi
2:55 PM57 °FBroken clouds.8 mph67%30.10 "Hg10 mi
2:35 PM57 °FMostly cloudy.6 mph67%30.11 "Hg10 mi
2:15 PM57 °FMostly cloudy.7 mph67%30.11 "Hg10 mi
1:55 PM57 °FBroken clouds.6 mph67%30.12 "Hg10 mi
1:35 PM57 °FOvercast.6 mph67%30.12 "Hg10 mi
1:15 PM55 °FOvercast.6 mph72%30.13 "Hg10 mi
12:55 PM55 °FOvercast.7 mph72%30.14 "Hg10 mi
12:35 PM54 °FMostly cloudy.8 mph77%30.14 "Hg10 mi
12:15 PM54 °FMostly cloudy.9 mph77%30.15 "Hg10 mi
11:55 AM54 °FBroken clouds.6 mph77%30.15 "Hg10 mi
11:35 AM52 °FPassing clouds.No wind82%30.16 "Hg10 mi
11:15 AM52 °FScattered clouds.5 mph82%30.16 "Hg9 mi
10:55 AM52 °FPartly sunny.6 mph77%30.16 "Hg10 mi
10:35 AM52 °FPartly sunny.8 mph77%30.16 "Hg10 mi
10:15 AM52 °FPartly sunny.8 mph77%30.16 "Hg10 mi
9:55 AM52 °FOvercast.8 mph77%30.15 "Hg10 mi
9:35 AM52 °FOvercast.7 mph82%30.15 "Hg10 mi
9:15 AM52 °FPartly sunny.6 mph77%30.15 "Hg10 mi
8:55 AM52 °FPartly sunny.3 mph82%30.14 "Hg10 mi
8:35 AM50 °FPartly sunny.5 mph82%30.14 "Hg10 mi
8:15 AM50 °FOvercast.3 mph88%30.15 "Hg10 mi
7:55 AM48 °FOvercast.5 mph94%30.14 "Hg8 mi
7:35 AM48 °FBroken clouds.5 mph94%30.14 "Hg6 mi
7:15 AM48 °FBroken clouds.7 mph94%30.14 "Hg3 mi
6:55 AM50 °FPartly sunny.No wind88%30.13 "Hg3 mi
6:35 AM50 °FOvercast.No wind88%30.13 "Hg5 mi
6:15 AM48 °FOvercast.3 mph94%30.13 "Hg5 mi
5:55 AM50 °FPassing clouds.No wind88%30.12 "Hg10 mi
5:35 AM50 °FPassing clouds.No wind88%30.12 "Hg10 mi
5:15 AM50 °FPassing clouds.No wind88%30.12 "Hg10 mi
4:55 AM48 °FPassing clouds.3 mph94%30.12 "Hg10 mi
4:35 AM50 °FPassing clouds.5 mph88%30.11 "Hg10 mi
4:15 AM50 °FPassing clouds.7 mph88%30.11 "Hg10 mi
3:55 AM48 °FPassing clouds.5 mph87%30.11 "Hg10 mi
3:35 AM50 °FPassing clouds.No wind88%30.10 "Hg10 mi
3:15 AM52 °FPassing clouds.6 mph77%30.10 "Hg10 mi
2:55 AM50 °FOvercast.8 mph82%30.10 "Hg10 mi
2:35 AM50 °FPassing clouds.7 mph82%30.10 "Hg10 mi
2:15 AM52 °FPassing clouds.10 mph72%30.09 "Hg10 mi
1:55 AM52 °FPassing clouds.12 mph77%30.09 "Hg10 mi
1:35 AM52 °FPassing clouds.10 mph77%30.09 "Hg10 mi
1:15 AM50 °FClear.6 mph82%30.09 "Hg10 mi
12:55 AM50 °FClear.6 mph82%30.09 "Hg10 mi
12:35 AM52 °FClear.8 mph72%30.09 "Hg10 mi
12:15 AM52 °FClear.7 mph72%30.08 "Hg10 mi
11:55 PM
Sun, May 3
50 °FClear.No wind76%30.08 "Hg10 mi
11:35 PM52 °FClear.5 mph72%30.08 "Hg10 mi
11:15 PM52 °FClear.3 mph72%30.08 "Hg10 mi
Weather by CustomWeather, © 2015

See weather overviewHow to use our weather pages